Zurück zum Katalog

IRIDE-MS1-EAG2-9

AktivWissenschaftSSO
NORAD 68449·PAYLOAD·🇮🇹 Italy

Gestartet Mar 30, 2026 von Vandenberg Space Force Base

Loading…

Nächste Überflüge (nächste 24 Stunden)

TLE

AktuellSource: Space-Track

Epoche: Sep 14, 2026, 07:42 UTC

1 68449U 26067AK  26257.32116815  .00005318  00000-0  25711-3 0  9997
2 68449  97.4605 214.4512 0005908 107.7627 252.4253 15.19025598 25460

Verfolge IRIDE-MS1-EAG2-9 in Echtzeit mit AllMySat

Download on the App Store